Flag for USA

Past Weather in Youngstown, Ohio, USA — Yesterday and Last 2 Weeks

Now
74 °F

Scattered clouds.


Feels Like: 77 °F
Forecast: 92 / 65 °F
Wind: 6 mph from North

Location: Youngstown-Warren Regional Airport

Current Time: Jul 4, 2020 at 9:23:53 pm

Latest Report: Jul 4, 2020 at 8:51 pm


Visibility: 10 mi

Pressure: 29.96 "Hg

Humidity: 50%

Dew Point: 54 °F

Location of YoungstownLocation

Past Weather in Youngstown — Graph

°F

Youngstown Temperature Yesterday

Maximum temperature yesterday: 89 °F (at 1:51 pm)
Minimum temperature yesterday: 63 °F (at 3:51 am)
Average temperature yesterday: 77 °F

High & Low Weather Summary for the Past Weeks

 TemperatureHumidityPressure
High89 °F (Jul 3, 1:51 pm)94% (Jun 20, 8:08 am)30.07 "Hg (Jun 20, 8:08 am)
Low57 °F (Jun 20, 5:31 am)36% (Jun 29, 2:51 pm)29.62 "Hg (Jun 23, 1:51 pm)
Average72 °F70%29.91 "Hg
* Reported Jun 19 7:11 pm — Jul 4 7:51 pm, Youngstown. Weather by CustomWeather, © 2020

Note: Actual official high and low records may vary slightly from our data, if they occured in-between our weather recording intervals... More about our weather records

Youngstown Weather History for the Previous 24 Hours

Scroll right to see more
 ConditionsComfort  
Time TempWeatherWind HumidityBarometerVisibility
7:51 pm
Sat, Jul 4
79 °FPartly sunny.9 mph42%29.96 "Hg10 mi
6:51 pm84 °FPartly sunny.10 mph37%29.96 "Hg10 mi
5:51 pm86 °FScattered clouds.12 mph36%29.97 "Hg10 mi
4:51 pm87 °FBroken clouds.8 mph36%29.98 "Hg10 mi
3:51 pm86 °FPartly sunny.12 mph40%29.98 "Hg10 mi
2:51 pm85 °FBroken clouds.8 mph42%29.98 "Hg10 mi
1:51 pm88 °FBroken clouds.9 mph38%29.98 "Hg10 mi
12:51 pm86 °FBroken clouds.12 mph42%29.98 "Hg10 mi
11:51 am86 °FPartly sunny.10 mph45%29.99 "Hg10 mi
10:51 am85 °FPartly sunny.8 mph51%29.99 "Hg10 mi
9:51 am82 °FScattered clouds.7 mph58%29.99 "Hg10 mi
8:51 am78 °FPassing clouds.7 mph66%29.98 "Hg10 mi
7:51 am74 °FScattered clouds.3 mph82%29.98 "Hg8 mi
6:51 am70 °FFog.3 mph87%29.97 "Hg8 mi
5:51 am69 °FFog.No wind87%29.96 "Hg8 mi
4:51 am69 °FPassing clouds.No wind87%29.95 "Hg9 mi
3:51 am69 °FClear.5 mph87%29.95 "Hg9 mi
2:51 am70 °FPassing clouds.No wind84%29.96 "Hg10 mi
1:51 am72 °FPassing clouds.3 mph81%29.96 "Hg10 mi
12:51 am74 °FPassing clouds.No wind76%29.96 "Hg10 mi
11:51 pm
Fri, Jul 3
74 °FPassing clouds.5 mph76%29.96 "Hg10 mi
10:51 pm76 °FPassing clouds.5 mph74%29.96 "Hg10 mi
9:51 pm77 °FPassing clouds.6 mph71%29.94 "Hg10 mi
Weather by CustomWeather, © 2020

See weather overview